Tracking 29932 objects as of 3-Dec-2024
HD Live streaming from Space Station
objects crossing your sky now

GALAXY 32

Track GALAXY 32 now!
GALAXY 32 is classified as:


NORAD ID: 54244
Int'l Code: 2022-153B
Perigee: 35,787.4 km
Apogee: 35,800.4 km
Inclination: 0.0 °
Period: 1,436.1 minutes
Semi major axis: 42164 km
RCS: Unknown
Launch date: November 12, 2022
Source: United States (US)
Launch site: AIR FORCE EASTERN TEST RANGE (AFETR)
Your satellite tracking list
Your tracking list is empty




NASA's NSSDC Master Catalog

Two Line Element Set (TLE):
1 54244U 22153B   24338.14244059 -.00000149  00000-0  00000+0 0  9995
2 54244   0.0097 325.0937 0001539 347.8242  79.8479  1.00271317  7546
Source of the keplerian elements: AFSPC